EAL8275 MNMG-MMAA

Flight info

Callsign EAL8275
Flight time 1h 58m
Altitude 36000
Route TAGOM1 TUKOR UA317 TAP J1 ANVAN ANVAN1B
Aircraft B772/H-SDE2E3FGHIJ5LORVWXY/LB1D1

Departure

Time 2026-05-05 23:10
Airport Augusto C. Sandino (Managua) International Airport (MNMG)

Arrival

Time 2026-05-06 01:08
Airport General Juan N. Álvarez International Airport (MMAA)
Time Latitude Longitude Altitude Speed Heading
2026-05-05 23:06 12.14340 -86.17203 219 ft 2 kts 298°
2026-05-05 23:06 12.14336 -86.17193 220 ft 2 kts 281°
2026-05-05 23:06 12.14334 -86.17182 220 ft 2 kts 277°
2026-05-05 23:06 12.14334 -86.17180 220 ft 0 kts 277°
2026-05-05 23:07 12.14335 -86.17185 220 ft 4 kts 277°
2026-05-05 23:07 12.14343 -86.17255 211 ft 16 kts 277°
2026-05-05 23:07 12.14359 -86.17394 210 ft 21 kts 276°
2026-05-05 23:07 12.14375 -86.17542 209 ft 21 kts 276°
2026-05-05 23:08 12.14391 -86.17690 209 ft 21 kts 276°
2026-05-05 23:08 12.14350 -86.17828 212 ft 21 kts 238°
2026-05-05 23:08 12.14305 -86.17900 215 ft 8 kts 237°
2026-05-05 23:08 12.14277 -86.17901 213 ft 4 kts 126°
2026-05-05 23:09 12.14273 -86.17845 207 ft 22 kts 95°
2026-05-05 23:09 12.14227 -86.17431 212 ft 96 kts 96°
2026-05-05 23:09 12.14127 -86.16524 211 ft 161 kts 96°
2026-05-05 23:09 12.13995 -86.15323 734 ft 177 kts 95°
2026-05-05 23:10 12.13878 -86.14132 1551 ft 170 kts 99°
2026-05-05 23:10 12.13763 -86.12919 2511 ft 165 kts 97°
2026-05-05 23:10 12.13653 -86.11761 3041 ft 169 kts 95°
2026-05-05 23:10 12.13535 -86.10538 3487 ft 177 kts 95°
2026-05-05 23:11 12.13408 -86.09204 3673 ft 198 kts 95°
2026-05-05 23:11 12.13011 -86.07793 3749 ft 220 kts 124°
2026-05-05 23:11 12.11790 -86.06800 4138 ft 237 kts 157°
2026-05-05 23:11 12.10112 -86.06715 4581 ft 255 kts 194°
2026-05-05 23:12 12.08622 -86.07730 5040 ft 264 kts 234°
2026-05-05 23:12 12.07983 -86.09456 5599 ft 265 kts 270°
2026-05-05 23:12 12.08299 -86.11339 5767 ft 276 kts 288°
2026-05-05 23:12 12.08353 -86.13330 6069 ft 289 kts 256°
2026-05-05 23:13 12.07763 -86.15305 6555 ft 293 kts 255°
2026-05-05 23:13 12.07307 -86.17299 7122 ft 291 kts 268°
2026-05-05 23:13 12.07380 -86.19369 7692 ft 293 kts 279°
2026-05-05 23:13 12.07663 -86.21440 8263 ft 297 kts 281°
2026-05-05 23:14 12.07974 -86.23568 8730 ft 306 kts 280°
2026-05-05 23:14 12.08266 -86.25720 9410 ft 306 kts 279°
2026-05-05 23:14 12.08537 -86.27894 9967 ft 311 kts 278°
2026-05-05 23:14 12.08796 -86.30115 10356 ft 322 kts 278°
2026-05-05 23:15 12.09057 -86.32445 10481 ft 344 kts 278°
2026-05-05 23:15 12.09331 -86.34951 10750 ft 360 kts 277°
2026-05-05 23:15 12.09607 -86.37521 11290 ft 369 kts 277°
2026-05-05 23:15 12.09890 -86.40164 11885 ft 376 kts 277°
2026-05-05 23:16 12.10192 -86.42835 12563 ft 381 kts 278°
2026-05-05 23:16 12.10504 -86.45503 13296 ft 384 kts 278°
2026-05-05 23:16 12.10824 -86.48230 13971 ft 388 kts 277°
2026-05-05 23:16 12.11144 -86.50978 14628 ft 391 kts 277°
2026-05-05 23:17 12.11466 -86.53756 15297 ft 395 kts 277°
2026-05-05 23:17 12.11789 -86.56551 15995 ft 397 kts 277°
2026-05-05 23:17 12.12184 -86.59345 16616 ft 398 kts 285°
2026-05-05 23:17 12.13294 -86.61936 17126 ft 398 kts 304°
2026-05-05 23:18 12.14840 -86.64315 17655 ft 405 kts 305°
2026-05-05 23:18 12.16394 -86.66726 18367 ft 406 kts 304°
2026-05-05 23:18 12.17942 -86.69158 19010 ft 409 kts 304°
2026-05-05 23:18 12.19494 -86.71616 19556 ft 415 kts 304°
2026-05-05 23:19 12.21060 -86.74113 20114 ft 419 kts 304°
2026-05-05 23:19 12.22640 -86.76641 20724 ft 423 kts 304°
2026-05-05 23:19 12.24205 -86.79152 21323 ft 427 kts 304°
2026-05-05 23:19 12.25833 -86.81768 21890 ft 432 kts 304°
2026-05-05 23:20 12.27453 -86.84372 22436 ft 437 kts 304°
2026-05-05 23:20 12.29067 -86.86970 23013 ft 441 kts 305°
2026-05-05 23:20 12.30717 -86.89625 23559 ft 444 kts 305°
2026-05-05 23:20 12.32383 -86.92308 24066 ft 447 kts 304°
2026-05-05 23:21 12.34056 -86.95002 24606 ft 449 kts 304°
2026-05-05 23:21 12.35731 -86.97701 25116 ft 451 kts 304°
2026-05-05 23:21 12.37420 -87.00422 25631 ft 453 kts 304°
2026-05-05 23:21 12.39114 -87.03153 26085 ft 456 kts 304°
2026-05-05 23:22 12.40820 -87.05903 26553 ft 459 kts 304°
2026-05-05 23:22 12.42540 -87.08675 26991 ft 461 kts 304°
2026-05-05 23:22 12.44260 -87.11450 27437 ft 464 kts 304°
2026-05-05 23:22 12.45994 -87.14248 27867 ft 466 kts 304°
2026-05-05 23:23 12.47731 -87.17051 28280 ft 469 kts 304°
2026-05-05 23:23 12.49481 -87.19876 28690 ft 471 kts 304°
2026-05-05 23:23 12.51216 -87.22677 29091 ft 473 kts 303°
2026-05-05 23:23 12.52979 -87.25526 29501 ft 475 kts 303°
2026-05-05 23:24 12.54752 -87.28391 29873 ft 477 kts 303°
2026-05-05 23:24 12.56529 -87.31263 30206 ft 479 kts 303°
2026-05-05 23:24 12.58308 -87.34141 30577 ft 479 kts 303°
2026-05-05 23:24 12.60090 -87.37023 30944 ft 479 kts 303°
2026-05-05 23:25 12.61870 -87.39904 31272 ft 479 kts 303°
2026-05-05 23:25 12.63658 -87.42797 31572 ft 481 kts 303°
2026-05-05 23:25 12.65450 -87.45697 31840 ft 482 kts 304°
2026-05-05 23:25 12.67240 -87.48596 32113 ft 483 kts 303°
2026-05-05 23:26 12.69037 -87.51507 32406 ft 483 kts 304°
2026-05-05 23:26 12.70838 -87.54425 32685 ft 484 kts 304°
2026-05-05 23:26 12.72635 -87.57338 32925 ft 485 kts 304°
2026-05-05 23:26 12.74440 -87.60264 33140 ft 486 kts 304°
2026-05-05 23:27 12.76247 -87.63196 33394 ft 486 kts 304°
2026-05-05 23:27 12.78054 -87.66129 33717 ft 484 kts 304°
2026-05-05 23:27 12.79822 -87.68999 34028 ft 482 kts 304°
2026-05-05 23:27 12.81612 -87.71905 34290 ft 481 kts 303°
2026-05-05 23:28 12.83395 -87.74802 34483 ft 481 kts 303°
2026-05-05 23:28 12.85185 -87.77710 34696 ft 481 kts 303°
2026-05-05 23:28 12.86967 -87.80605 34938 ft 481 kts 303°
2026-05-05 23:28 12.88674 -87.83562 35202 ft 480 kts 298°
2026-05-05 23:29 12.90133 -87.86636 35474 ft 479 kts 295°
2026-05-05 23:29 12.91467 -87.89767 35752 ft 478 kts 294°
2026-05-05 23:29 12.92745 -87.92854 36016 ft 477 kts 294°
2026-05-05 23:29 12.94057 -87.95984 36284 ft 475 kts 294°
2026-05-05 23:30 12.95383 -87.99076 36558 ft 474 kts 294°
2026-05-05 23:30 12.96730 -88.02156 36817 ft 473 kts 295°
2026-05-05 23:30 12.98087 -88.05224 37065 ft 472 kts 295°
2026-05-05 23:30 12.99449 -88.08288 37284 ft 471 kts 294°
2026-05-05 23:31 13.00810 -88.11349 37526 ft 471 kts 294°
2026-05-05 23:31 13.02166 -88.14405 37764 ft 470 kts 294°
2026-05-05 23:31 13.04881 -88.20537 37868 ft 473 kts 294°
2026-05-05 23:32 13.07589 -88.26664 37868 ft 470 kts 294°
2026-05-05 23:32 13.10270 -88.32746 37873 ft 467 kts 294°
2026-05-05 23:33 13.12931 -88.38822 37870 ft 466 kts 294°
2026-05-05 23:33 13.15572 -88.44848 37878 ft 467 kts 294°
2026-05-05 23:34 13.18237 -88.50929 37878 ft 468 kts 294°
2026-05-05 23:34 13.20913 -88.57035 37877 ft 469 kts 294°
2026-05-05 23:35 13.23589 -88.63146 37880 ft 470 kts 294°
2026-05-05 23:35 13.26220 -88.69163 37876 ft 471 kts 294°
2026-05-05 23:36 13.28904 -88.75304 37874 ft 472 kts 294°
2026-05-05 23:36 13.31588 -88.81450 37874 ft 472 kts 294°
2026-05-05 23:37 13.34257 -88.87566 37878 ft 472 kts 294°
2026-05-05 23:37 13.36937 -88.93714 37874 ft 472 kts 294°
2026-05-05 23:38 13.39620 -88.99872 37876 ft 472 kts 294°
2026-05-05 23:38 13.42297 -89.06021 37882 ft 471 kts 294°
2026-05-05 23:39 13.44518 -89.12332 37883 ft 470 kts 287°
2026-05-05 23:39 13.46343 -89.18784 37880 ft 470 kts 286°
2026-05-05 23:40 13.48167 -89.25240 37879 ft 470 kts 287°
2026-05-05 23:40 13.50015 -89.31683 37884 ft 470 kts 287°
2026-05-05 23:41 13.51875 -89.38125 37948 ft 470 kts 287°
2026-05-05 23:41 13.53734 -89.44573 37941 ft 470 kts 287°
2026-05-05 23:42 13.55577 -89.50976 37947 ft 470 kts 286°
2026-05-05 23:42 13.57437 -89.57446 37962 ft 470 kts 287°
2026-05-05 23:43 13.59288 -89.63892 37974 ft 470 kts 286°
2026-05-05 23:43 13.61138 -89.70343 37980 ft 470 kts 286°
2026-05-05 23:44 13.62973 -89.76741 37985 ft 470 kts 286°
2026-05-05 23:44 13.64821 -89.83197 37988 ft 470 kts 286°
2026-05-05 23:45 13.66669 -89.89658 37997 ft 470 kts 286°
2026-05-05 23:45 13.68513 -89.96113 37989 ft 471 kts 286°
2026-05-05 23:46 13.70358 -90.02579 37991 ft 471 kts 286°
2026-05-05 23:46 13.72204 -90.09055 37991 ft 472 kts 286°
2026-05-05 23:47 13.74049 -90.15487 37998 ft 472 kts 286°
2026-05-05 23:47 13.75932 -90.21956 37993 ft 472 kts 286°
2026-05-05 23:48 13.77811 -90.28433 37995 ft 472 kts 286°
2026-05-05 23:48 13.79682 -90.34913 38000 ft 472 kts 286°
2026-05-05 23:49 13.81219 -90.40299 37998 ft 472 kts 286°
2026-05-05 23:49 13.83063 -90.46789 37999 ft 472 kts 286°
2026-05-05 23:50 13.84909 -90.53278 38002 ft 472 kts 286°
2026-05-05 23:50 13.86753 -90.59762 38003 ft 472 kts 286°
2026-05-05 23:51 13.88597 -90.66253 38002 ft 472 kts 286°
2026-05-05 23:51 13.90423 -90.72691 37999 ft 472 kts 286°
2026-05-05 23:52 13.92265 -90.79190 37998 ft 473 kts 286°
2026-05-05 23:52 13.94623 -90.85514 37987 ft 473 kts 296°
2026-05-05 23:53 13.97870 -90.91422 37978 ft 474 kts 300°
2026-05-05 23:53 14.01193 -90.97292 37966 ft 475 kts 300°
2026-05-05 23:54 14.04495 -91.03203 37965 ft 476 kts 299°
2026-05-05 23:54 14.07776 -91.09132 37952 ft 476 kts 299°
2026-05-05 23:55 14.11034 -91.15029 37946 ft 477 kts 299°
2026-05-05 23:55 14.14320 -91.20977 37935 ft 478 kts 299°
2026-05-05 23:56 14.17613 -91.26941 37931 ft 478 kts 299°
2026-05-05 23:56 14.20911 -91.32900 37921 ft 479 kts 300°
2026-05-05 23:57 14.24240 -91.38851 37912 ft 479 kts 300°
2026-05-05 23:57 14.27567 -91.44796 37900 ft 478 kts 300°
2026-05-05 23:58 14.30885 -91.50736 37891 ft 478 kts 299°
2026-05-05 23:58 14.34168 -91.56625 37888 ft 477 kts 299°
2026-05-05 23:59 14.37477 -91.62566 37885 ft 477 kts 299°
2026-05-05 23:59 14.40778 -91.68495 37882 ft 476 kts 299°
2026-05-06 00:00 14.44075 -91.74423 37894 ft 476 kts 299°
2026-05-06 00:00 14.47372 -91.80354 37889 ft 476 kts 299°
2026-05-06 00:01 14.50670 -91.86292 37881 ft 476 kts 299°
2026-05-06 00:01 14.53963 -91.92226 37887 ft 476 kts 299°
2026-05-06 00:02 14.57252 -91.98157 37892 ft 476 kts 299°
2026-05-06 00:02 14.60539 -92.04090 37877 ft 476 kts 299°
2026-05-06 00:03 14.63824 -92.10023 37878 ft 475 kts 299°
2026-05-06 00:03 14.66650 -92.15128 37880 ft 475 kts 299°
2026-05-06 00:04 14.69934 -92.21009 37891 ft 475 kts 299°
2026-05-06 00:04 14.73237 -92.26911 37895 ft 474 kts 299°
2026-05-06 00:05 14.78127 -92.35802 37906 ft 474 kts 295°
2026-05-06 00:06 14.80496 -92.42150 37895 ft 473 kts 285°
2026-05-06 00:06 14.82175 -92.48688 37895 ft 473 kts 284°
2026-05-06 00:07 14.83845 -92.55258 37886 ft 473 kts 284°
2026-05-06 00:07 14.85557 -92.61835 37881 ft 474 kts 285°
2026-05-06 00:08 14.87281 -92.68413 37871 ft 474 kts 285°
2026-05-06 00:08 14.89004 -92.74997 37857 ft 475 kts 285°
2026-05-06 00:09 14.90726 -92.81591 37857 ft 475 kts 285°
2026-05-06 00:09 14.92452 -92.88203 37859 ft 476 kts 284°
2026-05-06 00:10 14.94177 -92.94813 37859 ft 476 kts 285°
2026-05-06 00:10 14.95900 -93.01429 37861 ft 476 kts 284°
2026-05-06 00:11 14.97621 -93.08047 37859 ft 476 kts 284°
2026-05-06 00:11 14.99331 -93.14627 37860 ft 476 kts 284°
2026-05-06 00:12 15.01050 -93.21254 37858 ft 476 kts 284°
2026-05-06 00:12 15.02767 -93.27882 37859 ft 477 kts 284°
2026-05-06 00:13 15.04481 -93.34505 37857 ft 477 kts 284°
2026-05-06 00:13 15.06196 -93.41139 37858 ft 476 kts 284°
2026-05-06 00:14 15.07906 -93.47766 37857 ft 476 kts 284°
2026-05-06 00:14 15.09614 -93.54391 37860 ft 477 kts 284°
2026-05-06 00:15 15.11311 -93.60983 37859 ft 477 kts 284°
2026-05-06 00:15 15.13018 -93.67623 37858 ft 477 kts 284°
2026-05-06 00:16 15.14725 -93.74270 37855 ft 477 kts 284°
2026-05-06 00:16 15.16427 -93.80906 37856 ft 477 kts 284°
2026-05-06 00:17 15.18130 -93.87555 37855 ft 477 kts 284°
2026-05-06 00:17 15.19831 -93.94208 37853 ft 478 kts 284°
2026-05-06 00:18 15.21529 -94.00859 37854 ft 478 kts 284°
2026-05-06 00:18 15.23227 -94.07515 37851 ft 478 kts 284°
2026-05-06 00:19 15.24911 -94.14127 37849 ft 478 kts 284°
2026-05-06 00:19 15.26604 -94.20782 37853 ft 478 kts 284°
2026-05-06 00:20 15.28297 -94.27447 37849 ft 478 kts 284°
2026-05-06 00:20 15.29987 -94.34109 37853 ft 478 kts 284°
2026-05-06 00:21 15.31673 -94.40761 37852 ft 478 kts 284°
2026-05-06 00:21 15.33348 -94.47384 37851 ft 478 kts 284°
2026-05-06 00:22 15.35032 -94.54047 37851 ft 478 kts 284°
2026-05-06 00:22 15.36717 -94.60723 37851 ft 479 kts 284°
2026-05-06 00:23 15.38398 -94.67395 37855 ft 479 kts 284°
2026-05-06 00:23 15.40082 -94.74084 37849 ft 479 kts 284°
2026-05-06 00:24 15.41761 -94.80763 37851 ft 479 kts 284°
2026-05-06 00:24 15.43435 -94.87435 37852 ft 479 kts 284°
2026-05-06 00:25 15.45101 -94.94081 37848 ft 479 kts 283°
2026-05-06 00:25 15.46771 -95.00752 37848 ft 479 kts 283°
2026-05-06 00:26 15.48446 -95.07451 37851 ft 479 kts 283°
2026-05-06 00:26 15.50115 -95.14135 37854 ft 479 kts 283°
2026-05-06 00:27 15.51771 -95.20781 37852 ft 480 kts 283°
2026-05-06 00:27 15.53447 -95.27515 37849 ft 482 kts 283°
2026-05-06 00:28 15.55122 -95.34248 37850 ft 483 kts 283°
2026-05-06 00:28 15.56802 -95.41017 37850 ft 484 kts 283°
2026-05-06 00:29 15.58484 -95.47799 37848 ft 485 kts 283°
2026-05-06 00:29 15.60154 -95.54548 37849 ft 485 kts 283°
2026-05-06 00:30 15.61835 -95.61343 37851 ft 485 kts 283°
2026-05-06 00:30 15.63510 -95.68129 37850 ft 485 kts 283°
2026-05-06 00:31 15.65181 -95.74907 37849 ft 485 kts 283°
2026-05-06 00:31 15.66847 -95.81675 37856 ft 484 kts 283°
2026-05-06 00:32 15.68504 -95.88414 37853 ft 484 kts 283°
2026-05-06 00:32 15.70166 -95.95186 37865 ft 483 kts 283°
2026-05-06 00:33 15.71822 -96.01945 37876 ft 483 kts 283°
2026-05-06 00:33 15.73466 -96.08656 37888 ft 483 kts 283°
2026-05-06 00:34 15.74850 -96.14312 37890 ft 483 kts 283°
2026-05-06 00:34 15.76813 -96.22151 37886 ft 483 kts 283°
2026-05-06 00:35 15.78069 -96.27790 37898 ft 481 kts 277°
2026-05-06 00:35 15.78910 -96.34683 37890 ft 481 kts 275°
2026-05-06 00:36 15.79678 -96.41585 37894 ft 481 kts 275°
2026-05-06 00:36 15.80477 -96.48502 37898 ft 482 kts 276°
2026-05-06 00:37 15.81295 -96.55408 37900 ft 482 kts 276°
2026-05-06 00:37 15.82118 -96.62324 37906 ft 482 kts 276°
2026-05-06 00:38 15.82931 -96.69188 37895 ft 482 kts 276°
2026-05-06 00:38 15.83746 -96.76105 37911 ft 482 kts 276°
2026-05-06 00:39 15.84558 -96.83007 37910 ft 481 kts 276°
2026-05-06 00:39 15.85366 -96.89905 37923 ft 481 kts 276°
2026-05-06 00:40 15.86172 -96.96797 37924 ft 481 kts 276°
2026-05-06 00:40 15.86970 -97.03634 37939 ft 481 kts 276°
2026-05-06 00:41 15.88211 -97.10479 37943 ft 482 kts 285°
2026-05-06 00:41 15.90401 -97.17066 37934 ft 482 kts 288°
2026-05-06 00:42 15.92674 -97.23612 37927 ft 482 kts 288°
2026-05-06 00:42 15.94922 -97.30176 37913 ft 482 kts 288°
2026-05-06 00:43 15.97141 -97.36744 37897 ft 481 kts 288°
2026-05-06 00:43 15.99352 -97.43322 37866 ft 481 kts 288°
2026-05-06 00:44 16.01558 -97.49894 37883 ft 481 kts 288°
2026-05-06 00:44 16.03763 -97.56461 37683 ft 481 kts 288°
2026-05-06 00:44 16.04864 -97.59744 37551 ft 480 kts 288°
2026-05-06 00:45 16.05961 -97.63018 37425 ft 480 kts 288°
2026-05-06 00:45 16.07061 -97.66301 37287 ft 480 kts 288°
2026-05-06 00:45 16.08163 -97.69592 37167 ft 480 kts 288°
2026-05-06 00:45 16.09260 -97.72870 37040 ft 480 kts 288°
2026-05-06 00:46 16.10355 -97.76142 36715 ft 479 kts 288°
2026-05-06 00:46 16.11435 -97.79374 36080 ft 479 kts 288°
2026-05-06 00:46 16.12528 -97.82644 35449 ft 478 kts 288°
2026-05-06 00:46 16.13621 -97.85916 34712 ft 480 kts 288°
2026-05-06 00:47 16.14720 -97.89209 33916 ft 483 kts 288°
2026-05-06 00:47 16.15825 -97.92522 33019 ft 487 kts 288°
2026-05-06 00:47 16.16936 -97.95856 32146 ft 489 kts 288°
2026-05-06 00:47 16.18056 -97.99218 31266 ft 493 kts 288°
2026-05-06 00:48 16.19182 -98.02598 30354 ft 498 kts 288°
2026-05-06 00:48 16.20316 -98.06006 29644 ft 497 kts 288°
2026-05-06 00:48 16.21443 -98.09393 28870 ft 493 kts 288°
2026-05-06 00:48 16.22562 -98.12761 28174 ft 489 kts 288°
2026-05-06 00:49 16.23667 -98.16086 27509 ft 485 kts 288°
2026-05-06 00:49 16.24766 -98.19396 26855 ft 481 kts 288°
2026-05-06 00:49 16.25852 -98.22670 26226 ft 478 kts 288°
2026-05-06 00:49 16.26919 -98.25889 25587 ft 475 kts 289°
2026-05-06 00:50 16.27994 -98.29131 24942 ft 472 kts 289°
2026-05-06 00:50 16.29063 -98.32359 24307 ft 470 kts 289°
2026-05-06 00:50 16.30129 -98.35580 23664 ft 469 kts 289°
2026-05-06 00:50 16.31190 -98.38785 22960 ft 468 kts 289°
2026-05-06 00:51 16.32248 -98.41986 22280 ft 465 kts 289°
2026-05-06 00:51 16.33296 -98.45158 21645 ft 461 kts 289°
2026-05-06 00:51 16.34339 -98.48315 21026 ft 458 kts 289°
2026-05-06 00:51 16.35357 -98.51398 20427 ft 454 kts 289°
2026-05-06 00:52 16.36381 -98.54502 19821 ft 451 kts 289°
2026-05-06 00:52 16.37396 -98.57580 19222 ft 448 kts 289°
2026-05-06 00:52 16.38401 -98.60630 18710 ft 443 kts 289°
2026-05-06 00:52 16.39399 -98.63661 18178 ft 440 kts 289°
2026-05-06 00:53 16.40385 -98.66656 17534 ft 437 kts 289°
2026-05-06 00:53 16.41368 -98.69643 16923 ft 434 kts 290°
2026-05-06 00:53 16.42346 -98.72618 16322 ft 431 kts 290°
2026-05-06 00:53 16.43312 -98.75557 15736 ft 428 kts 290°
2026-05-06 00:54 16.44276 -98.78492 15155 ft 426 kts 290°
2026-05-06 00:54 16.45231 -98.81400 14592 ft 424 kts 290°
2026-05-06 00:54 16.46183 -98.84300 13996 ft 422 kts 290°
2026-05-06 00:54 16.47120 -98.87156 13397 ft 420 kts 290°
2026-05-06 00:55 16.48062 -98.90029 12786 ft 418 kts 290°
2026-05-06 00:55 16.48997 -98.92882 12210 ft 415 kts 290°
2026-05-06 00:55 16.49927 -98.95710 11704 ft 409 kts 290°
2026-05-06 00:55 16.50849 -98.98504 11144 ft 406 kts 290°
2026-05-06 00:56 16.51756 -99.01255 10898 ft 395 kts 290°
2026-05-06 00:56 16.52636 -99.03922 10696 ft 383 kts 290°
2026-05-06 00:56 16.53488 -99.06508 10528 ft 371 kts 290°
2026-05-06 00:56 16.54312 -99.09008 10372 ft 359 kts 290°
2026-05-06 00:57 16.55113 -99.11441 10216 ft 348 kts 290°
2026-05-06 00:57 16.55879 -99.13772 10062 ft 328 kts 289°
2026-05-06 00:57 16.56586 -99.15923 9804 ft 302 kts 289°
2026-05-06 00:57 16.57261 -99.17975 9476 ft 298 kts 289°
2026-05-06 00:58 16.57933 -99.20019 9130 ft 297 kts 289°
2026-05-06 00:58 16.58601 -99.22052 8787 ft 295 kts 289°
2026-05-06 00:58 16.59256 -99.24047 8452 ft 294 kts 289°
2026-05-06 00:58 16.59918 -99.26062 8116 ft 293 kts 289°
2026-05-06 00:59 16.60573 -99.28058 7776 ft 288 kts 289°
2026-05-06 00:59 16.61221 -99.30037 7450 ft 287 kts 289°
2026-05-06 00:59 16.61866 -99.32006 7122 ft 286 kts 289°
2026-05-06 00:59 16.62507 -99.33968 6800 ft 286 kts 289°
2026-05-06 01:00 16.62932 -99.35266 6588 ft 283 kts 288°
2026-05-06 01:00 16.63280 -99.36329 6392 ft 278 kts 288°
2026-05-06 01:01 16.63844 -99.38057 6104 ft 277 kts 288°
2026-05-06 01:01 16.64465 -99.39958 5772 ft 276 kts 288°
2026-05-06 01:01 16.65083 -99.41851 5434 ft 275 kts 288°
2026-05-06 01:01 16.65694 -99.43723 5117 ft 267 kts 288°
2026-05-06 01:02 16.66288 -99.45542 4818 ft 263 kts 288°
2026-05-06 01:02 16.66875 -99.47340 4521 ft 262 kts 288°
2026-05-06 01:02 16.67461 -99.49137 4204 ft 261 kts 288°
2026-05-06 01:02 16.68043 -99.50929 3916 ft 260 kts 288°
2026-05-06 01:03 16.68619 -99.52709 3660 ft 257 kts 288°
2026-05-06 01:03 16.69184 -99.54479 3369 ft 255 kts 287°
2026-05-06 01:03 16.69731 -99.56223 3056 ft 248 kts 287°
2026-05-06 01:03 16.70235 -99.57839 2761 ft 226 kts 287°
2026-05-06 01:04 16.70722 -99.59401 2524 ft 222 kts 286°
2026-05-06 01:04 16.71194 -99.60917 2303 ft 217 kts 286°
2026-05-06 01:04 16.71646 -99.62365 2099 ft 205 kts 286°
2026-05-06 01:04 16.72067 -99.63717 1840 ft 188 kts 286°
2026-05-06 01:05 16.72453 -99.64952 1623 ft 170 kts 287°
2026-05-06 01:05 16.72799 -99.66061 1394 ft 152 kts 286°
2026-05-06 01:05 16.73103 -99.67035 1221 ft 130 kts 285°
2026-05-06 01:05 16.73369 -99.67891 1091 ft 129 kts 285°
2026-05-06 01:06 16.73669 -99.68855 915 ft 144 kts 284°
2026-05-06 01:06 16.73974 -99.69826 727 ft 137 kts 284°
2026-05-06 01:06 16.74273 -99.70795 565 ft 146 kts 284°
2026-05-06 01:06 16.74593 -99.71808 387 ft 145 kts 288°
2026-05-06 01:07 16.74892 -99.72776 159 ft 136 kts 288°
2026-05-06 01:07 16.75184 -99.73702 27 ft 129 kts 287°
2026-05-06 01:07 16.75428 -99.74478 26 ft 92 kts 288°
2026-05-06 01:07 16.75581 -99.74966 21 ft 56 kts 288°
2026-05-06 01:08 16.75692 -99.75322 27 ft 46 kts 288°
2026-05-06 01:08 16.75766 -99.75561 30 ft 16 kts 288°
2026-05-06 01:08 16.75791 -99.75615 30 ft 6 kts 325°
2026-05-06 01:08 16.75834 -99.75601 28 ft 8 kts 50°
2026-05-06 01:09 16.75862 -99.75547 25 ft 8 kts 64°
2026-05-06 01:09 16.75882 -99.75494 26 ft 6 kts 68°
2026-05-06 01:09 16.75883 -99.75491 25 ft 1 kts 68°
2026-05-06 01:09 16.75891 -99.75470 26 ft 3 kts 68°
2026-05-06 01:10 16.75922 -99.75421 25 ft 8 kts 32°
2026-05-06 01:10 16.75996 -99.75437 24 ft 13 kts 303°
2026-05-06 01:10 16.76027 -99.75528 24 ft 13 kts 288°
2026-05-06 01:10 16.76072 -99.75579 23 ft 8 kts
2026-05-06 01:11 16.76125 -99.75562 22 ft 5 kts 18°
2026-05-06 01:11 16.76133 -99.75559 24 ft 0 kts 18°